Regional Weather Roundup
Issued by NWS

Home | Current Version | Previous Version | Graphics & Text | Print | Product List | Glossary Off
Versions: 1 2 3 4 5 6 7 8 9 10 11 12 13 14 15 16 17 18 19 20 21 22 23 24 25 26 27 28 29 30 31 32 33 34 35 36 37 38 39 40 41 42 43 44 45 46 47 48 49 50

000
ASUS43 KDTX 212110
RWRMI
MICHIGAN HOURLY REGIONAL WEATHER ROUNDUP
NATIONAL WEATHER SERVICE DETROIT/PONTIAC MI
ISSUED BY NATIONAL WEATHER SERVICE GRAND RAPIDS MI
400 PM EST TUE FEB 21 2017

NOTE: "FAIR" INDICATES FEW OR NO CLOUDS BELOW 12,000 FEET WITH NO
SIGNIFICANT WEATHER AND/OR OBSTRUCTION TO VISIBILITY.

MIZ047>049-052>055-059>063-066>070-074>076-081>083-212200-
SOUTHEAST LOWER MICHIGAN

CITY           SKY/WX    TMP DP  RH WIND       PRES   REMARKS
ADRIAN         CLOUDY    57  49  74 S6        29.94R
ALMA           MOSUNNY   58  49  72 W14       29.90R
ANN ARBOR      CLOUDY    60  49  66 SW6       29.92S
BAD AXE        CLOUDY    50  48  93 W8        29.90S FOG
DETROIT CITY   CLOUDY    56  45  66 S3        29.92F
DETROIT        CLOUDY    56  46  69 S7        29.93F
FLINT          PTSUNNY   60  52  74 W13       29.91R
GROSSE ILE     CLOUDY    54  47  76 CALM      29.92S
HILLSDALE      CLOUDY    57  50  77 W3        29.91F
HOWELL         CLOUDY    59  51  72 S7        29.91S

CITY           SKY/WX    TMP DP  RH WIND       PRES   REMARKS
JACKSON        MOSUNNY   62  50  64 W10       29.91S
LANSING        CLOUDY    59  51  75 W15       29.92R
MASON          MOSUNNY   63  53  70 W13       29.91S
MONROE         PTSUNNY   57  50  77 W5        29.92S
MT. CLEMENS    PTSUNNY   47  41  80 E3        29.90F
PONTIAC        CLOUDY    57  49  74 SW6       29.91S
PORT HOPE        N/A     49  47  93 VRB6      29.87S
PORT HURON     CLOUDY    52  45  76 S3        29.93R
TRI CITIES     PTSUNNY   57  50  77 W13       29.89S
YPSILANTI      CLOUDY    59  48  67 SW3       29.92F
$$
MIZ043>046-050>051-056>058-064>065-071>073-077>080-212200-
SOUTHWEST LOWER MICHIGAN

CITY           SKY/WX    TMP DP  RH WIND       PRES   REMARKS
BATTLE CREEK   CLOUDY    60  53  77 SW10      29.92R
BENTON HARBOR  PTSUNNY   57  51  80 SW5       29.91F
BIG RAPIDS     SUNNY     58  44  59 W9        29.89S
COLDWATER      CLOUDY    60  51  73 W7        29.92F
HOLLAND        PTSUNNY   55  49  80 SW12      29.92S
GRAND RAPIDS   CLOUDY    56  50  80 SW13      29.91R
KALAMAZOO      CLOUDY    62  50  64 W10       29.92S
MARSHALL       MOSUNNY   62  52  71 SW8       29.91S
MOUNT PLEASANT CLOUDY    58  47  69 W9        29.88S
MUSKEGON       CLOUDY    53  45  74 NW5       29.91S
STURGIS        PTSUNNY   60  52  77 NW3       29.92S
$$
MIZ016>042-212200-
NORTHERN LOWER MICHIGAN

CITY           SKY/WX    TMP DP  RH WIND       PRES   REMARKS
ALPENA         SUNNY     59  39  47 VRB6      29.84S
BEAVER ISLAND  SUNNY     48  40  72 SW14      29.84S
BELLAIRE       SUNNY     56  40  54 CALM      29.87S
CADILLAC       SUNNY     57  42  56 W9        29.87R
CHARLEVOIX     SUNNY     53  39  59 SW9G16    29.89S
GAYLORD        SUNNY     54  33  45 W7        29.85R
HOUGHTON LAKE  SUNNY     53  43  68 W7        29.88R
MANISTEE       SUNNY     52  42  69 W7        29.89F
OSCODA         SUNNY     55  46  69 W10G20    29.86R
PELLSTON       SUNNY     50  39  66 W8        29.85R
TRAVERSE CITY  MOSUNNY   60  38  43 W10       29.85S
LUDINGTON      SUNNY     50  42  75 W5        29.90S
$$
MIZ007>008-015-212200-
EASTERN UPPER MICHIGAN

CITY           SKY/WX    TMP DP  RH WIND       PRES   REMARKS
KINROSS        CLOUDY    42  41  96 N3        29.83R FOG
MACKINAC ISLAN SUNNY     44  44 100 W7        29.83S
NEWBERRY       SUNNY     50  32  49 SW7       29.80S
S. S. MARIE    SUNNY     45  37  73 NW6       29.83R
$$
MIZ004>006-011>014-085-212200-
CENTRAL UPPER MICHIGAN

CITY           SKY/WX    TMP DP  RH WIND       PRES   REMARKS
MANISTIQUE     SUNNY     49  37  61 SW5       29.81S
ESCANABA       SUNNY     49  37  63 S10       29.82S
MENOMINEE      SUNNY     59  37  44 W8        29.84F
SAWYER-GWINN   SUNNY     54  32  43 SW9       29.79S
$$
MIZ001>003-009>011-084-212200-
WESTERN UPPER MICHIGAN

CITY           SKY/WX    TMP DP  RH WIND       PRES   REMARKS
IRON MOUNTAIN  SUNNY     58  27  30 SW8       29.79F
HOUGHTON       SUNNY     45  32  60 W9        29.76S
COPPER HARBOR    N/A     39  33  79 N8        29.75S WCI  33
IRONWOOD       SUNNY     55  29  36 SW8       29.75F
$$

ABBREVIATIONS USED IN REMARKS
   TC - TEMPERATURE IN CELSIUS
  WCI - WIND CHILL INDEX
   HX - HEAT INDEX
  VSB - VISIBILITY





USA.gov is the U.S. government's official web portal to all federal, state and local government web resources and services.